TimePST,TemperatureF,Dew PointF,Humidity,Sea Level PressureIn,VisibilityMPH,Wind Direction,Wind SpeedMPH,Gust SpeedMPH,PrecipitationIn,Events,Conditions,WindDirDegrees,DateUTC
12:15 AM,44.6,19.4,37,30.05,10.0,SSW,10.4,-,N/A,,Overcast,200,2013-02-23 08:15:00
12:35 AM,46.4,21.2,37,30.04,10.0,SW,9.2,-,N/A,,Overcast,220,2013-02-23 08:35:00
12:55 AM,44.6,21.2,39,30.02,10.0,Calm,Calm,-,N/A,,Scattered Clouds,0,2013-02-23 08:55:00
1:15 AM,44.6,24.8,46,30.01,10.0,WSW,18.4,25.3,N/A,,Clear,240,2013-02-23 09:15:00
1:35 AM,44.6,24.8,46,29.99,10.0,WSW,12.7,24.2,N/A,,Clear,240,2013-02-23 09:35:00
1:55 AM,44.6,24.8,46,29.98,10.0,WSW,15.0,28.8,N/A,,Clear,240,2013-02-23 09:55:00
2:15 AM,44.6,24.8,46,29.97,10.0,WSW,15.0,25.3,N/A,,Clear,240,2013-02-23 10:15:00
2:35 AM,44.6,23.0,43,29.96,10.0,WSW,20.7,29.9,N/A,,Scattered Clouds,240,2013-02-23 10:35:00
2:55 AM,44.6,23.0,43,29.93,10.0,WSW,23.0,32.2,N/A,,Scattered Clouds,250,2013-02-23 10:55:00
3:15 AM,44.6,21.2,39,29.90,10.0,WSW,24.2,36.8,N/A,,Partly Cloudy,240,2013-02-23 11:15:00
3:35 AM,44.6,23.0,43,29.90,10.0,WSW,29.9,40.3,N/A,,Clear,240,2013-02-23 11:35:00
3:55 AM,44.6,24.8,46,29.91,10.0,SW,21.9,34.5,N/A,,Scattered Clouds,230,2013-02-23 11:55:00
4:15 AM,42.8,24.8,49,29.91,10.0,West,18.4,34.5,N/A,,Mostly Cloudy,260,2013-02-23 12:15:00
4:35 AM,41.0,24.8,53,29.93,10.0,West,20.7,32.2,N/A,,Mostly Cloudy,270,2013-02-23 12:35:00
4:55 AM,41.0,26.6,57,29.94,10.0,WSW,23.0,40.3,N/A,,Overcast,250,2013-02-23 12:55:00
5:15 AM,39.2,28.4,65,29.95,10.0,West,11.5,29.9,N/A,Rain,Light Rain,260,2013-02-23 13:15:00
5:35 AM,37.4,26.6,65,29.95,9.0,West,11.5,18.4,N/A,Rain,Light Rain,280,2013-02-23 13:35:00
5:55 AM,37.4,28.4,70,29.99,10.0,SW,9.2,18.4,N/A,,Mostly Cloudy,230,2013-02-23 13:55:00
6:15 AM,37.4,26.6,65,29.99,10.0,WNW,13.8,20.7,N/A,,Mostly Cloudy,290,2013-02-23 14:15:00
6:35 AM,37.4,26.6,65,30.01,10.0,WNW,8.1,19.6,N/A,Snow,Light Snow,290,2013-02-23 14:35:00
6:55 AM,37.4,19.4,48,30.02,10.0,NW,15.0,25.3,N/A,,Scattered Clouds,310,2013-02-23 14:55:00
7:15 AM,35.6,24.8,65,30.04,10.0,North,9.2,-,N/A,Rain,Light Rain,350,2013-02-23 15:15:00
7:35 AM,35.6,24.8,65,30.05,10.0,WNW,3.5,-,N/A,,Scattered Clouds,290,2013-02-23 15:35:00
7:55 AM,37.4,19.4,48,30.05,10.0,West,8.1,-,N/A,,Clear,260,2013-02-23 15:55:00
8:15 AM,37.4,19.4,48,30.07,10.0,NNW,9.2,19.6,N/A,,Scattered Clouds,330,2013-02-23 16:15:00
8:35 AM,35.6,19.4,52,30.09,10.0,North,17.3,23.0,N/A,,Scattered Clouds,10,2013-02-23 16:35:00
8:55 AM,37.4,19.4,48,30.10,10.0,North,17.3,23.0,N/A,,Clear,360,2013-02-23 16:55:00
9:15 AM,37.4,17.6,45,30.10,10.0,North,18.4,24.2,N/A,,Scattered Clouds,350,2013-02-23 17:15:00
9:35 AM,35.6,17.6,48,30.11,10.0,North,16.1,27.6,N/A,,Overcast,350,2013-02-23 17:35:00
9:55 AM,37.4,15.8,41,30.11,10.0,North,18.4,21.9,N/A,,Overcast,360,2013-02-23 17:55:00
10:15 AM,39.2,15.8,39,30.11,10.0,North,16.1,21.9,N/A,,Mostly Cloudy,350,2013-02-23 18:15:00
10:35 AM,35.6,14.0,41,30.12,10.0,NNW,19.6,25.3,N/A,,Mostly Cloudy,330,2013-02-23 18:35:00
10:55 AM,37.4,14.0,38,30.12,10.0,NNW,27.6,32.2,N/A,,Mostly Cloudy,340,2013-02-23 18:55:00
11:15 AM,37.4,14.0,38,30.12,10.0,North,24.2,32.2,N/A,,Mostly Cloudy,350,2013-02-23 19:15:00
11:35 AM,37.4,12.2,36,30.13,10.0,NNW,24.2,31.1,N/A,,Partly Cloudy,340,2013-02-23 19:35:00
11:55 AM,39.2,10.4,31,30.13,10.0,NNW,19.6,27.6,N/A,,Clear,340,2013-02-23 19:55:00
12:15 PM,39.2,8.6,28,30.12,10.0,North,21.9,31.1,N/A,,Clear,350,2013-02-23 20:15:00
12:35 PM,39.2,6.8,26,30.12,10.0,North,23.0,29.9,N/A,,Clear,350,2013-02-23 20:35:00
12:55 PM,39.2,6.8,26,30.11,10.0,North,23.0,31.1,N/A,,Clear,360,2013-02-23 20:55:00
1:15 PM,39.2,6.8,26,30.11,10.0,North,21.9,29.9,N/A,,Clear,360,2013-02-23 21:15:00
1:35 PM,39.2,3.2,22,30.11,10.0,North,19.6,28.8,N/A,,Clear,350,2013-02-23 21:35:00
1:55 PM,39.2,6.8,26,30.11,10.0,North,23.0,27.6,N/A,,Clear,360,2013-02-23 21:55:00
2:15 PM,39.2,5.0,24,30.12,10.0,NNW,12.7,20.7,N/A,,Clear,340,2013-02-23 22:15:00
2:35 PM,37.4,3.2,24,30.12,10.0,NNW,16.1,25.3,N/A,,Clear,340,2013-02-23 22:35:00
2:55 PM,37.4,5.0,26,30.13,10.0,North,17.3,24.2,N/A,,Clear,360,2013-02-23 22:55:00
3:15 PM,37.4,3.2,24,30.13,10.0,North,11.5,20.7,N/A,,Clear,360,2013-02-23 23:15:00
3:35 PM,37.4,5.0,26,30.13,10.0,NNW,16.1,20.7,N/A,,Partly Cloudy,330,2013-02-23 23:35:00
3:55 PM,37.4,5.0,26,30.13,10.0,North,13.8,23.0,N/A,,Scattered Clouds,10,2013-02-23 23:55:00
4:15 PM,37.4,6.8,28,30.14,10.0,North,15.0,20.7,N/A,,Scattered Clouds,350,2013-02-24 00:15:00
4:35 PM,35.6,5.0,28,30.15,10.0,North,11.5,24.2,N/A,,Partly Cloudy,350,2013-02-24 00:35:00
4:55 PM,35.6,5.0,28,30.15,10.0,North,12.7,19.6,N/A,,Clear,360,2013-02-24 00:55:00
5:15 PM,33.8,6.8,32,30.16,10.0,NNW,11.5,-,N/A,,Clear,340,2013-02-24 01:15:00
5:35 PM,33.8,6.8,32,30.16,10.0,North,11.5,-,N/A,,Scattered Clouds,360,2013-02-24 01:35:00
5:55 PM,32.0,8.6,38,30.16,10.0,North,12.7,19.6,N/A,,Partly Cloudy,350,2013-02-24 01:55:00
6:15 PM,32.0,10.4,41,30.17,10.0,North,10.4,-,N/A,,Clear,10,2013-02-24 02:15:00
6:35 PM,32.0,12.2,44,30.18,10.0,NNE,6.9,-,N/A,,Clear,30,2013-02-24 02:35:00
6:55 PM,32.0,10.4,41,30.19,10.0,East,4.6,-,N/A,,Clear,80,2013-02-24 02:55:00
7:15 PM,32.0,10.4,41,30.19,10.0,NE,6.9,-,N/A,,Clear,40,2013-02-24 03:15:00
7:35 PM,32.0,10.4,41,30.19,10.0,ENE,9.2,-,N/A,,Clear,70,2013-02-24 03:35:00
7:55 PM,30.2,10.4,44,30.21,10.0,ENE,4.6,-,N/A,,Clear,60,2013-02-24 03:55:00
8:35 PM,26.6,10.4,51,30.20,10.0,Calm,Calm,-,N/A,,Clear,0,2013-02-24 04:35:00
8:55 PM,26.6,10.4,51,30.20,10.0,Calm,Calm,-,N/A,,Clear,0,2013-02-24 04:55:00
9:15 PM,28.4,10.4,47,30.21,10.0,Calm,Calm,-,N/A,,Clear,0,2013-02-24 05:15:00
9:35 PM,24.8,10.4,54,30.21,10.0,Calm,Calm,-,N/A,,Clear,0,2013-02-24 05:35:00
9:55 PM,26.6,10.4,51,30.22,10.0,WNW,5.8,-,N/A,,Clear,290,2013-02-24 05:55:00
10:15 PM,24.8,10.4,54,30.23,10.0,Calm,Calm,-,N/A,,Clear,0,2013-02-24 06:15:00
10:35 PM,26.6,10.4,51,30.23,10.0,NE,3.5,-,N/A,,Clear,40,2013-02-24 06:35:00
10:55 PM,23.0,10.4,59,30.23,10.0,Calm,Calm,-,N/A,,Clear,0,2013-02-24 06:55:00
11:15 PM,24.8,10.4,54,30.23,10.0,NE,3.5,-,N/A,,Clear,40,2013-02-24 07:15:00
11:35 PM,21.2,10.4,63,30.23,10.0,North,9.2,-,N/A,,Clear,360,2013-02-24 07:35:00
11:55 PM,23.0,10.4,59,30.23,10.0,North,3.5,-,N/A,,Clear,10,2013-02-24 07:55:00